FW2547 Weather Reports


Display with metric or nautical units.
time (UTC)temp
F
wind
direction
speed
MPH
gust
MPH
rain 1hr
in
rain 24hr
in
rain mn
in
humidity
%
barometer
mb
20260508153035 71 302 9.0 13.0 0.00 0.00 0.00 26 1009.2
20260508151524 71 317 9.0 13.0 0.00 0.00 0.00 27 1009.1
20260508150019 70 315 9.0 17.0 0.00 0.00 0.00 28 1009.2
20260508144524 69 296 11.0 19.0 0.00 0.00 0.00 28 1009.3
20260508143013 68 304 11.0 15.0 0.00 0.00 0.00 28 1009.3
20260508141510 68 314 10.0 16.0 0.00 0.00 0.00 28 1009.3
20260508140001 67 305 9.0 16.0 0.00 0.00 0.00 29 1009.2
20260508134558 66 308 8.0 13.0 0.00 0.00 0.00 34 1009.1
20260508133053 65 329 2.0 6.0 0.00 0.00 0.00 40 1009.0
20260508131600 64 38 2.0 4.0 0.00 0.00 0.00 40 1009.0
20260508130044 63 30 1.0 2.0 0.00 0.00 0.00 41 1008.7
20260508124541 63 31 1.0 3.0 0.00 0.00 0.00 41 1008.6
20260508123038 64 330 1.0 3.0 0.00 0.00 0.00 39 1008.4
20260508121536 64 284 1.0 3.0 0.00 0.00 0.00 40 1008.3
20260508120043 63 284 1.0 3.0 0.00 0.00 0.00 39 1008.2
20260508114550 63 288 2.0 5.0 0.00 0.00 0.00 39 1008.0
20260508113033 64 284 2.0 8.0 0.00 0.00 0.00 39 1008.2
20260508111531 64 320 2.0 4.0 0.00 0.00 0.00 37 1008.3
20260508110032 64 320 7.0 11.0 0.00 0.00 0.00 37 1008.4
20260508104533 65 291 11.0 15.0 0.00 0.00 0.00 36 1008.3
20260508103034 65 302 11.0 15.0 0.00 0.00 0.00 34 1008.3
20260508101527 64 325 8.0 18.0 0.00 0.00 0.00 33 1008.1
20260508100022 65 304 12.0 19.0 0.00 0.00 0.00 36 1008.2
20260508094522 66 304 4.0 8.0 0.00 0.00 0.00 42 1007.9
20260508093024 66 85 0.0 2.0 0.00 0.00 0.00 41 1007.6
20260508091515 67 84 2.0 4.0 0.00 0.00 0.00 40 1007.9
20260508090011 67 84 3.0 6.0 0.00 0.00 0.00 40 1007.9
20260508084510 68 84 3.0 5.0 0.00 0.00 0.00 39 1008.2
20260508083008 68 80 4.0 5.0 0.00 0.00 0.00 39 1008.3
20260508081510 68 80 3.0 5.0 0.00 0.00 0.00 39 1008.4
20260508080107 68 200 2.0 4.0 0.00 0.00 0.00 40 1008.4
20260508074503 68 200 1.0 2.0 0.00 0.00 0.00 39 1008.6
20260508073004 68 200 0.0 4.0 0.00 0.00 0.00 38 1008.9
20260508071603 68 204 4.0 7.0 0.00 0.00 0.00 38 1009.0
20260508070056 69 158 3.0 6.0 0.00 0.00 0.00 36 1009.2
20260508064553 70 145 4.0 8.0 0.00 0.00 0.00 36 1009.5
20260508063102 70 161 6.0 9.0 0.00 0.00 0.00 35 1009.5
20260508061549 70 142 4.0 7.0 0.00 0.00 0.00 34 1009.3
20260508060047 71 120 4.0 6.0 0.00 0.00 0.00 33 1009.5
20260508054546 71 86 1.0 8.0 0.00 0.00 0.00 32 1009.5
20260508053050 72 128 4.0 8.0 0.00 0.00 0.00 31 1009.3
20260508051545 73 154 7.0 14.0 0.00 0.00 0.00 29 1009.6
20260508050044 74 128 5.0 14.0 0.00 0.00 0.00 25 1009.4
20260508044544 75 121 2.0 5.0 0.00 0.00 0.00 23 1009.3
20260508043055 76 148 3.0 7.0 0.00 0.00 0.00 21 1008.9
20260508041549 77 101 4.0 8.0 0.00 0.00 0.00 17 1009.0
20260508040042 76 125 4.0 9.0 0.00 0.00 0.00 18 1009.0
20260508034541 77 55 1.0 3.0 0.00 0.00 0.00 17 1008.6
20260508033040 77 55 2.0 4.0 0.00 0.00 0.00 17 1008.2
20260508031540 78 40 4.0 5.0 0.00 0.00 0.00 16 1008.0
20260508030043 78 27 3.0 5.0 0.00 0.00 0.00 16 1007.9
20260508024540 79 27 3.0 6.0 0.00 0.00 0.00 16 1007.8
20260508023038 79 61 3.0 6.0 0.00 0.00 0.00 16 1007.8
20260508021543 79 54 5.0 7.0 0.00 0.00 0.00 16 1007.5
20260508020045 80 61 4.0 7.0 0.00 0.00 0.00 15 1007.3
20260508014538 80 106 3.0 7.0 0.00 0.00 0.00 15 1007.3
20260508013050 80 76 4.0 8.0 0.00 0.00 0.00 15 1007.4
20260508011537 81 117 2.0 8.0 0.00 0.00 0.00 14 1007.3
20260508010035 81 100 0.0 6.0 0.00 0.00 0.00 14 1007.5
20260508004533 81 74 8.0 12.0 0.00 0.00 0.00 14 1007.4
20260508003033 81 59 5.0 9.0 0.00 0.00 0.00 14 1007.5
20260508001558 81 44 3.0 9.0 0.00 0.00 0.00 14 1007.5
20260508000031 81 115 6.0 12.0 0.00 0.00 0.00 14 1007.6
20260507234534 82 9 2.0 4.0 0.00 0.00 0.00 14 1007.5
20260507233027 82 343 1.0 3.0 0.00 0.00 0.00 15 1007.8
20260507231533 81 174 6.0 9.0 0.00 0.00 0.00 15 1008.0
20260507230026 81 186 6.0 12.0 0.00 0.00 0.00 15 1008.2
20260507224532 81 218 5.0 9.0 0.00 0.00 0.00 15 1008.3
20260507223019 81 88 3.0 6.0 0.00 0.00 0.00 16 1008.4
20260507221518 80 22 6.0 11.0 0.00 0.00 0.00 16 1008.5
20260507220025 79 159 4.0 10.0 0.00 0.00 0.00 17 1008.8
20260507214515 79 161 12.0 17.0 0.00 0.00 0.00 16 1009.0
20260507213011 81 207 6.0 12.0 0.00 0.00 0.00 16 1009.3
20260507211506 80 311 4.0 11.0 0.00 0.00 0.00 18 1009.4
20260507210006 79 161 6.0 11.0 0.00 0.00 0.00 17 1009.8
20260507204501 78 145 3.0 11.0 0.00 0.00 0.00 17 1009.9
20260507203101 79 130 6.0 12.0 0.00 0.00 0.00 18 1010.2
20260507201559 77 159 4.0 11.0 0.00 0.00 0.00 18 1010.5
20260507194552 77 36 2.0 11.0 0.00 0.00 0.00 19 1010.9
20260507193051 75 165 4.0 12.0 0.00 0.00 0.00 20 1011.2
20260507191552 75 43 5.0 12.0 0.00 0.00 0.00 20 1011.4
20260507190047 75 163 6.0 10.0 0.00 0.00 0.00 21 1011.7
20260507184541 74 134 6.0 11.0 0.00 0.00 0.00 22 1011.9
20260507183042 73 129 9.0 13.0 0.00 0.00 0.00 23 1012.2
20260507181535 73 137 3.0 14.0 0.00 0.00 0.00 25 1012.4
20260507180031 71 74 7.0 11.0 0.00 0.00 0.00 27 1012.6
20260507174539 70 86 6.0 12.0 0.00 0.00 0.00 28 1012.6
20260507173027 69 82 3.0 14.0 0.00 0.00 0.00 28 1012.9
20260507171520 69 52 5.0 17.0 0.00 0.00 0.00 29 1013.1
20260507170023 68 82 10.0 15.0 0.00 0.00 0.00 30 1013.4
20260507164511 67 65 10.0 14.0 0.00 0.00 0.00 31 1013.6
20260507163007 67 136 5.0 15.0 0.00 0.00 0.00 33 1013.7
20260507161504 65 61 8.0 17.0 0.00 0.00 0.00 34 1013.9
20260507160059 65 53 12.0 18.0 0.00 0.00 0.00 35 1014.1
20260507154654 64 76 10.0 17.0 0.00 0.00 0.00 35 1014.2